CAPE
1553 1520 1601 1719 1599 1213 977 942 504 263 276 199 54 161 162 123 32 13 0 0 0 0 0 0 0 0 0 0 0 0 0 0
1646 1517 1611 1655 1685 1343 1031 1178 758 491 303 353 215 240 219 166 118 59 0 0 0 0 0 0 0 0 0 0 0 0 0 0
1759 1629 1678 1553 1477 1473 1156 788 672 708 384 452 267 246 259 260 124 128 6 0 0 0 0 0 0 0 0 0 0 0 0 0
1959 1844 1664 1667 1587 1418 1315 859 814 703 796 523 401 374 274 226 199 118 69 14 0 0 0 0 0 0 0 0 0 0 0 0
1885 1977 1728 1587 1601 1489 1376 1026 807 828 935 779 462 233 238 189 204 128 93 46 1 0 0 0 0 0 0 0 0 0 0 0
1315 1756 1818 1664 1369 1543 1506 1146 904 864 979 939 638 530 271 225 128 117 92 127 35 0 0 0 0 0 0 0 0 0 0 1
646 598 877 1154 1064 1008 1035 1100 788 770 842 908 777 861 214 86 36 69 109 44 156 72 10 0 0 0 0 0 0 0 0 0
78 21 63 207 266 392 585 889 857 695 560 735 790 689 491 138 65 41 93 84 11 208 169 47 17 2 0 0 0 0 0 0
20 37 74 69 71 72 51 12 148 783 729 518 597 585 493 434 278 92 99 120 93 18 192 184 128 82 50 41 1 0 0 0
0 7 32 22 44 50 16 12 26 174 190 539 474 601 634 648 606 333 175 193 208 185 86 57 174 157 90 87 51 14 0 1
15 12 17 33 50 13 18 52 59 112 220 301 345 742 652 622 598 586 489 420 317 228 208 91 39 118 137 101 81 96 67 36
0 0 65 38 9 5 9 93 70 83 236 252 437 511 532 574 589 503 656 681 460 410 358 199 104 85 48 62 89 85 108 93
15 0 0 8 99 120 65 109 201 272 169 220 305 304 321 292 486 545 797 592 485 468 447 508 337 242 157 78 61 58 60 98
3 11 2 0 0 0 40 78 65 80 106 105 210 254 310 210 419 417 449 587 542 399 469 476 471 361 254 125 68 108 94 76
1 5 0 2 0 0 0 0 0 0 15 11 0 6 86 356 434 178 585 424 494 434 280 331 387 491 528 401 166 124 104 48
0 0 0 0 0 0 0 0 0 0 0 0 0 0 0 2 75 45 32 387 364 447 387 259 208 409 395 448 556 229 139 48
0 0 12 0 0 0 0 0 0 0 0 0 0 0 0 4 8 5 4 105 447 516 524 390 339 259 369 518 356 351 235 88
0 0 0 0 0 0 0 0 0 0 0 0 0 0 0 0 0 0 0 30 430 489 518 541 444 423 401 425 498 488 311 189
0 0 0 0 0 0 0 0 0 0 0 0 0 0 0 0 0 0 1 179 546 617 566 590 585 524 608 633 676 662 548 359
CIN
-121 -75 -32 -51 -33 -20 -44 -22 -38 -40 -71 -74 -89 -49 -84 -99 -89 -105 0 0 0 0 0 0 0 0 0 0 0 0 0 0
-136 -95 -52 -33 -26 -22 -28 -3 -7 -25 -83 -39 -37 -53 -73 -119 -107 -47 0 0 0 0 0 0 0 0 0 0 0 0 0 0
-112 -85 -52 -33 -45 -29 -8 -19 -1 -2 -58 -24 -37 -45 -28 -10 -87 -39 -84 0 0 0 0 0 0 0 0 0 0 0 0 0
-100 -56 -62 -43 -56 -51 -20 -47 -22 -9 -1 -10 -3 -9 -9 -39 -54 -78 -104 -101 0 0 0 0 0 0 0 0 0 0 0 0
-109 -91 -85 -66 -60 -52 -46 -40 -33 -27 -1 -3 -2 -22 -43 -85 -34 -66 -92 -103 -26 0 0 0 0 0 0 0 0 0 0 0
-68 -112 -93 -60 -65 -71 -49 -44 -36 -25 -5 -1 0 0 -6 -34 -61 -89 -47 -58 -71 0 0 0 0 0 0 0 0 0 0 -1
-34 -54 -48 -53 -42 -28 -69 -61 -54 -48 -30 -9 -6 -1 -8 -27 -116 -85 -40 -74 -44 -46 -11 0 0 0 0 0 0 0 0 0
-86 -55 -47 -37 -14 -22 -16 0 -1 -25 -43 -16 -14 -6 0 -9 -14 -5 -54 -54 -114 -41 -7 -57 -43 -28 0 0 0 0 0 0
-115 -50 -20 -43 -12 -8 -7 -4 -8 0 -3 -28 -36 -31 -3 -6 -6 -8 -79 -55 -62 -52 -9 -12 -39 -15 -23 -1 0 0 0 0
-15 -86 -40 -67 -21 -1 -7 -6 -11 -1 -1 0 -12 -13 -7 -7 0 -9 -5 -58 -30 -29 -10 -56 -23 -17 -29 -4 -7 -6 0 -1
-180 -101 -84 -53 -56 -61 -17 -19 -32 -4 -1 0 0 0 -2 -12 -16 -12 -4 -1 -3 -28 -20 -14 -34 -40 -13 -24 -29 -26 -48 -63
0 0 -30 -39 -39 0 -18 -22 -62 -34 -2 -2 0 0 0 -1 -4 -17 -1 0 0 0 -7 -19 -3 -10 -36 -29 -65 -38 -30 -36
-94 0 0 -56 -1 0 0 -5 -14 -19 -7 -19 0 -2 -3 -14 -11 -6 -3 -11 -9 -4 -1 -1 -1 -7 -9 -16 -22 -41 -59 -52
-89 -65 -69 0 0 0 -7 -32 -53 -33 -10 -4 0 -1 -1 -26 -5 -8 -12 -5 -8 -17 -5 0 -1 -1 -10 -16 -30 -22 -35 -83
-6 -30 -4 -38 -1 0 0 0 0 0 -17 -35 0 -13 -19 -6 -2 -36 -1 -13 -7 -15 -33 -32 -3 0 -4 0 -11 -19 -17 -76
-34 0 -3 0 0 0 0 0 0 0 0 0 0 0 0 -3 -35 -71 -115 -18 -23 -19 -29 -40 -46 -11 0 0 -1 -17 -19 -61
0 0 -39 0 0 0 0 0 0 0 0 0 0 0 0 -157 -161 -211 -234 -146 -26 -6 -9 -32 -33 -51 -14 -1 -1 -1 -22 -31
0 0 0 0 0 0 0 0 0 0 0 0 0 0 0 0 0 0 0 -232 -24 -46 -42 -18 -31 -37 -31 -19 -13 -2 -6 -24
0 0 0 0 0 0 0 0 0 0 0 0 0 0 0 0 0 0 -59 -70 -11 -20 -44 -35 -31 -41 -40 -27 -19 -6 -8 -12
Wind_Speed
34 31 31 28 27 26 25 29 27 27 33 35 nan 35 29 28 nan nan nan nan nan nan nan nan nan nan nan nan nan nan nan nan
34 35 34 34 33 30 28 32 29 29 31 32 34 33 38 32 32 nan nan nan nan nan nan nan nan nan nan nan nan nan nan nan
39 38 40 36 34 31 34 30 31 28 26 31 31 30 31 34 37 35 nan nan nan nan nan nan nan nan nan nan nan nan nan nan
42 40 41 39 36 34 31 33 36 35 32 35 37 37 35 30 27 31 nan nan nan nan nan nan nan nan nan nan nan nan nan nan
41 40 44 40 38 36 35 38 37 35 36 33 32 29 30 28 25 25 nan nan nan nan nan nan nan nan nan nan nan nan nan nan
44 43 43 33 39 37 37 38 37 36 34 33 33 33 33 32 33 30 nan 21 nan nan nan nan nan nan nan nan nan nan nan nan
78 74 72 66 65 61 50 44 40 37 34 35 33 34 38 nan nan nan 24 nan 21 nan nan nan nan nan nan nan nan nan nan nan
nan nan nan 72 73 68 65 61 45 41 39 38 37 37 38 35 nan nan nan nan nan 23 22 nan nan nan nan nan nan nan nan nan
nan nan nan nan nan nan nan nan 68 49 45 40 39 40 40 35 32 nan nan 30 nan nan 22 22 24 nan nan nan nan nan nan nan
nan nan nan nan nan nan nan nan nan 63 63 48 44 41 39 34 32 32 30 29 28 24 nan nan 22 19 nan nan nan nan nan nan
nan nan nan nan nan nan nan nan nan 61 60 56 54 40 40 39 35 31 27 26 27 25 24 nan nan 19 19 25 nan nan nan nan
nan nan nan nan nan nan nan nan nan nan 54 53 50 46 44 37 37 31 27 21 24 22 22 20 19 nan nan nan nan nan 31 nan
nan nan nan nan nan 61 nan 58 50 53 52 50 47 46 46 44 35 38 28 18 21 20 21 21 21 21 21 nan nan nan nan nan
nan nan nan nan nan nan nan nan nan nan 60 58 52 51 49 45 42 32 32 28 23 25 25 25 25 24 23 22 nan 21 nan nan
nan nan nan nan nan nan nan nan nan nan nan nan nan nan nan 45 43 43 32 29 27 26 26 25 27 29 27 24 23 25 20 nan
nan nan nan nan nan nan nan nan nan nan nan nan nan nan nan nan nan nan nan 30 27 25 26 25 25 28 31 27 27 24 26 nan
nan nan nan nan nan nan nan nan nan nan nan nan nan nan nan nan nan nan nan 36 34 30 28 27 27 29 28 27 27 27 26 nan
nan nan nan nan nan nan nan nan nan nan nan nan nan nan nan nan nan nan nan nan 33 33 31 31 29 28 28 26 30 32 31 29
nan nan nan nan nan nan nan nan nan nan nan nan nan nan nan nan nan nan nan 44 37 36 34 35 33 33 34 31 31 31 32 30
Wind_Direction
269 263 264 270 269 269 264 253 259 261 241 242 nan 247 249 262 nan nan nan nan nan nan nan nan nan nan nan nan nan nan nan nan
265 262 258 255 252 256 256 262 262 256 247 257 254 257 253 255 260 nan nan nan nan nan nan nan nan nan nan nan nan nan nan nan
259 255 249 247 253 256 252 251 254 262 251 247 246 249 248 254 248 258 nan nan nan nan nan nan nan nan nan nan nan nan nan nan
257 253 252 247 246 247 254 257 254 251 253 242 244 246 247 256 257 255 nan nan nan nan nan nan nan nan nan nan nan nan nan nan
251 245 244 244 241 243 245 252 258 254 257 256 260 262 259 256 269 257 nan nan nan nan nan nan nan nan nan nan nan nan nan nan
231 245 240 239 241 241 242 245 250 252 258 263 258 256 250 251 263 269 nan 284 nan nan nan nan nan nan nan nan nan nan nan nan
219 223 222 216 219 216 220 240 247 248 249 257 263 261 255 nan nan nan 274 nan 269 nan nan nan nan nan nan nan nan nan nan nan
nan nan nan 217 219 224 224 224 229 242 244 241 248 255 255 256 nan nan nan nan nan 266 276 nan nan nan nan nan nan nan nan nan
nan nan nan nan nan nan nan nan 225 229 242 240 242 249 250 250 251 nan nan 263 nan nan 281 287 300 nan nan nan nan nan nan nan
nan nan nan nan nan nan nan nan nan 228 228 235 243 243 250 255 255 252 250 260 265 271 nan nan 292 305 nan nan nan nan nan nan
nan nan nan nan nan nan nan nan nan 230 231 232 231 240 250 252 256 257 259 258 266 277 274 nan nan 304 306 317 nan nan nan nan
nan nan nan nan nan nan nan nan nan nan 234 231 229 229 233 252 256 257 260 261 262 268 277 281 281 nan nan nan nan nan 322 nan
nan nan nan nan nan 237 nan 228 227 223 227 228 228 226 225 227 254 256 253 247 250 258 264 277 281 284 281 nan nan nan nan nan
nan nan nan nan nan nan nan nan nan nan 219 216 219 226 225 224 222 240 251 246 245 253 259 268 275 282 287 292 nan 283 nan nan
nan nan nan nan nan nan nan nan nan nan nan nan nan nan nan 225 224 222 231 250 254 252 253 260 265 271 279 283 287 289 289 nan
nan nan nan nan nan nan nan nan nan nan nan nan nan nan nan nan nan nan nan 231 238 247 253 252 255 263 268 278 284 288 290 nan
nan nan nan nan nan nan nan nan nan nan nan nan nan nan nan nan nan nan nan 227 236 238 245 253 256 255 268 285 286 281 283 nan
nan nan nan nan nan nan nan nan nan nan nan nan nan nan nan nan nan nan nan nan 238 243 246 251 255 258 271 281 288 282 281 280
nan nan nan nan nan nan nan nan nan nan nan nan nan nan nan nan nan nan nan 228 242 247 247 250 250 251 261 271 279 279 279 283